Location: Unspecified
(0.0000°N, 0.0000°E)
Time: 11:22:52
(UTC+00:00)

XW-2D - Visible Passes

Search period start: 23 July 2018 00:00
Search period end: 02 August 2018 00:00
Orbit: 511 x 528 km, 97.5° (Epoch: 22 July)

Date Brightness Start Highest point End Pass type
(mag) Time Alt. Az. Time Alt. Az. Time Alt. Az.
23 Jul ? 05:21:01 10° NNE 05:24:35 42° E 05:28:09 10° S visible
24 Jul ? 05:07:53 10° NE 05:11:02 25° ESE 05:14:10 10° SSE visible
24 Jul ? 18:36:47 10° WSW 18:38:07 12° WSW 18:39:27 10° W visible
25 Jul ? 04:55:09 10° ENE 04:57:29 16° ESE 04:59:48 10° SE visible
29 Jul ? 05:33:23 10° NNE 05:37:07 70° E 05:40:51 10° S visible
30 Jul ? 05:20:01 10° NNE 05:23:33 40° E 05:27:05 10° S visible
31 Jul ? 05:06:54 10° NE 05:09:59 24° E 05:13:04 10° SSE visible
31 Jul ? 18:35:34 10° SW 18:37:04 12° WSW 18:38:36 10° WNW visible
01 Aug ? 04:54:13 10° ENE 04:56:26 15° ESE 04:58:39 10° SE visible
